x

Annapolis (44063) Wave Buoy

9:50pm - Sun 22nd Oct 2017 All times are EDT. -4 hours from GMT.

  • Sig Wave height 0.7ft
  • Wind
    9mph, 13mph gusts
  • Air Temp 67°f
  • Sea Pressure 1027.1mb
  • Annapolis
  • Annapolis

More Historic Weather Station data

Upgrade to MSW Pro to gain access to the past 30 days of data for over 8000 Wavebouys and Weather Stations around the globe.

Join

Comparision Forecast

View Surf forecast
   
Sun 10/22 9:50pm 0.7ft  -  9 13 mph 1027.1mb - 67f
9:40pm  -   -  9 11 mph 1027mb - 67f
9:30pm  -   -  9 11 mph 1026.8mb - 67f
9:20pm  -   -  9 11 mph 1026.6mb - 67f
9:10pm 0.7ft  -  9 11 mph 1026.7mb - 67f
9:00pm 0.7ft  -  9 11 mph 1026.5mb 68f 67f
8:50pm 0.7ft  -  9 11 mph 1026.4mb - 67f
8:40pm  -   -  9 11 mph 1026.3mb - 68f
8:30pm  -   -  9 11 mph 1026.1mb - 68f
8:20pm  -   -  9 11 mph 1025.9mb - 68f
8:10pm 0.7ft  -  7 11 mph 1025.9mb - 68f
8:00pm 0.7ft  -  4 7 mph 1025.9mb 68f 68f
7:50pm 0.7ft  -  4 7 mph 1025.9mb - 68f
7:40pm  -   -  7 9 mph 1025.7mb - 68f
7:30pm  -   -  7 9 mph 1025.5mb - 68f
7:20pm  -   -  7 9 mph 1025.4mb - 69f
7:10pm 0.7ft  -  9 9 mph 1025.2mb - 69f
7:00pm 0.7ft  -  7 9 mph 1025.2mb 68f 68f
6:50pm 0.7ft  -  7 9 mph 1025.3mb - 68f
6:40pm  -   -  7 7 mph 1025.2mb - 68f
6:30pm  -   -  7 7 mph 1025.2mb - 69f
6:20pm  -   -  7 7 mph 1025.3mb - 69f
6:10pm 0.7ft  -  7 7 mph 1025.3mb - 69f
6:00pm 0.7ft  -  7 7 mph 1025.4mb 69f 69f
5:50pm 0.7ft  -  7 7 mph 1025.5mb - 69f
5:40pm  -   -  7 9 mph 1025.6mb - 69f
5:30pm  -   -  7 9 mph 1025.6mb - 69f
5:20pm  -   -  7 9 mph 1025.8mb - 69f
5:10pm 0.7ft  -  7 9 mph 1026mb - 69f
5:00pm 0.7ft  -  7 9 mph 1026.1mb 69f 69f
4:50pm 0.7ft  -  7 9 mph 1026.1mb - 69f
4:40pm  -   -  7 9 mph 1026.1mb - 69f
4:30pm  -   -  7 7 mph 1026.1mb - 69f
4:20pm  -   -  4 7 mph 1026.2mb - 69f
4:10pm 1ft  -  4 4 mph 1026.2mb - 69f
4:00pm 1ft 2s 4 7 mph 1026.2mb 69f 69f
3:50pm 1ft  -  7 7 mph 1026.3mb - 68f
3:40pm  -   -  4 7 mph 1026.4mb - 69f
3:30pm  -   -  4 4 mph 1026.6mb - 69f
3:20pm  -   -  4 4 mph 1026.6mb - 69f
3:10pm 0.7ft  -  4 4 mph 1026.7mb - 69f
3:00pm 1ft 2s 4 4 mph 1026.7mb 69f 68f
2:50pm  -   -  4 4 mph 1026.8mb - 68f
2:40pm  -   -  2 4 mph 1026.9mb - 67f
2:30pm  -   -  4 4 mph 1027mb - 67f
2:20pm  -   -  4 4 mph 1027.2mb - 66f
2:10pm 1ft  -  4 4 mph 1027.3mb - 65f
2:00pm 1ft 2s 2 4 mph 1027.4mb 69f 65f
1:50pm 1ft  -  2 2 mph 1027.4mb - 64f
1:40pm  -   -  2 2 mph 1027.5mb - 64f
1:30pm  -   -  2 4 mph 1027.5mb - 63f
1:20pm  -   -  2 4 mph 1027.7mb - 63f
1:10pm 1ft  -  2 4 mph 1027.7mb - 63f
1:00pm 1ft 2s 4 7 mph 1027.8mb 68f 62f
12:50pm 1ft  -  4 7 mph 1027.9mb - 63f
12:40pm  -   -  7 9 mph 1028.1mb - 63f
12:30pm  -   -  7 7 mph 1028.2mb - 63f
12:20pm  -   -  7 7 mph 1028.3mb - 62f
12:10pm 0.7ft  -  4 9 mph 1028.4mb - 62f
12:00pm 0.7ft  -  7 7 mph 1028.5mb 68f 62f
11:50am 0.7ft  -  7 9 mph 1028.4mb - 62f
11:40am  -   -  7 9 mph 1028.6mb - 62f
11:30am  -   -  4 7 mph 1028.7mb - 62f
11:20am  -   -  4 7 mph 1028.8mb - 62f
11:10am 0.7ft  -  4 7 mph 1028.8mb - 62f
11:00am 0.7ft  -  4 7 mph 1028.8mb 68f 62f
10:50am  -   -  4 7 mph 1028.8mb - 62f
10:40am  -   -  4 7 mph 1028.9mb - 62f
10:30am  -   -  4 7 mph 1029mb - 63f
10:20am  -   -  4 7 mph 1029mb - 63f
10:10am 0.7ft  -  7 7 mph 1029.2mb - 63f
10:00am 0.7ft  -  7 9 mph 1029.5mb 68f 63f
9:50am 0.7ft  -  4 7 mph 1029.6mb - 63f
9:40am  -   -  2 7 mph 1029.6mb - 63f
9:30am  -   -  2 2 mph 1029.6mb - 63f
9:20am  -   -  2 2 mph 1029.5mb - 62f
9:10am 0.3ft  -  2 2 mph 1029.4mb - 61f
9:00am 0.3ft  -  2 4 mph 1029.4mb 68f 60f
8:50am  -   -  4 4 mph 1029.4mb - 60f
8:40am  -   -  2 4 mph 1029.4mb - 60f
8:30am  -   -  4 4 mph 1029.3mb - 60f
8:20am  -   -  4 4 mph 1029.2mb - 61f
8:10am 0.3ft  -   -  4 mph 1029.1mb - 61f
8:00am 0.3ft  -   -  2 mph 1029.1mb 67f 60f
7:50am 0.3ft  -   -  2 mph 1028.9mb - 60f
7:40am  -   -  2 2 mph 1028.8mb - 59f
7:30am  -   -  2 4 mph 1028.7mb - 59f
7:20am  -   -  4 4 mph 1028.6mb - 59f
7:10am 0.3ft  -  4 4 mph 1028.6mb - 59f
7:00am 0.3ft  -  4 4 mph 1028.5mb 68f 59f
6:50am  -   -  2 4 mph 1028.6mb - 59f
6:40am  -   -  2 4 mph 1028.4mb - 59f
6:30am  -   -  2 4 mph 1028.4mb - 59f
6:20am  -   -  2 4 mph 1028.4mb - 59f
6:10am 0.3ft  -  2 4 mph 1028.4mb - 59f
6:00am 0.3ft  -  4 4 mph 1028.4mb 68f 59f
5:50am 0.3ft  -  4 4 mph 1028.2mb - 59f
5:40am  -   -  4 4 mph 1028.1mb - 59f
5:30am  -   -  4 7 mph 1028mb - 58f
5:20am  -   -  4 7 mph 1028mb - 58f
5:10am 0.3ft  -  7 9 mph 1027.9mb - 59f
5:00am 0.3ft  -  7 7 mph 1027.7mb 68f 60f
4:50am 0.3ft  -  4 4 mph 1027.5mb - 60f
4:40am  -   -  4 4 mph 1027.4mb - 60f
4:30am  -   -  2 4 mph 1027.4mb - 59f
4:20am  -   -  4 4 mph 1027.3mb - 59f
4:10am 0.3ft  -  4 4 mph 1027.3mb - 59f
4:00am 0.3ft  -  4 7 mph 1027.4mb 68f 59f
3:50am 0.3ft  -  7 7 mph 1027.5mb - 60f
3:40am  -   -  7 7 mph 1027.4mb - 60f
3:30am  -   -  4 7 mph 1027.3mb - 60f
3:20am  -   -  4 7 mph 1027.2mb - 61f
3:10am  -   -  4 7 mph 1027.2mb - 61f
3:00am  -   -  2 4 mph 1027.2mb 68f 61f
2:50am  -   -  2 4 mph 1027.2mb - 61f
2:40am  -   -  4 4 mph 1027.3mb - 61f
2:30am  -   -  2 4 mph 1027.3mb - 62f
2:20am  -   -  2 4 mph 1027.4mb - 62f
2:10am  -   -  2 4 mph 1027.4mb - 62f
2:00am  -   -  2 2 mph 1027.4mb 68f 62f
1:50am  -   -  2 4 mph 1027.5mb - 62f
1:40am  -   -  2 4 mph 1027.6mb - 62f
1:30am  -   -   -  2 mph 1027.6mb - 62f
1:20am  -   -   -  2 mph 1027.5mb - 62f
1:10am  -   -  2 2 mph 1027.6mb - 62f
1:00am  -   -  2 2 mph 1027.7mb 68f 62f
12:50am  -   -  2 4 mph 1027.6mb - 62f
12:40am  -   -  2 4 mph 1027.6mb - 62f
12:30am  -   -  4 4 mph 1027.7mb - 62f
12:20am  -   -  4 4 mph 1027.7mb - 62f
12:10am  -   -  4 4 mph 1027.8mb - 63f
12:00am  -   -  2 4 mph 1027.8mb 68f 65f
Sat 10/21 11:50pm  -   -  4 7 mph 1027.9mb - 66f
11:40pm  -   -  7 7 mph 1027.9mb - 66f
11:30pm  -   -  7 7 mph 1028mb - 66f
11:20pm  -   -  7 7 mph 1028mb - 66f
11:10pm  -   -  7 9 mph 1027.9mb - 66f
11:00pm  -   -  7 9 mph 1027.9mb 68f 66f
10:50pm  -   -  9 9 mph 1027.9mb - 65f
10:40pm  -   -  9 11 mph 1027.9mb - 65f
10:30pm  -   -  9 9 mph 1027.9mb - 66f
10:20pm  -   -  4 11 mph 1027.9mb - 65f
10:10pm  -   -   -  2 mph 1028mb - 64f
10:00pm 0.3ft  -   -  0 mph 1027.9mb 68f 64f
9:50pm  -   -   -  0 mph 1027.9mb - 64f
9:40pm  -   -   -  0 mph 1027.8mb - 64f
9:30pm  -   -   -  2 mph 1027.8mb - 64f
9:20pm  -   -  2 4 mph 1027.8mb - 64f
9:10pm 0.3ft  -  2 4 mph 1027.7mb - 65f
9:00pm 0.3ft  -  2 4 mph 1027.7mb 68f 65f
8:50pm 0.3ft  -  2 2 mph 1027.7mb - 66f
8:40pm  -   -  2 4 mph 1027.7mb - 66f
8:30pm  -   -   -  2 mph 1027.7mb - 67f
8:20pm  -   -   -  2 mph 1027.7mb - 66f
8:10pm 0.3ft  -  2 2 mph 1027.7mb - 66f
8:00pm 0.3ft  -   -  2 mph 1027.6mb 68f 66f
7:50pm 0.3ft  -   -  2 mph 1027.1mb - 67f
7:40pm  -   -   -  2 mph 1027mb - 67f
7:30pm  -   -  2 2 mph 1027mb - 67f
7:20pm  -   -  2 4 mph 1026.9mb - 67f
7:10pm 0.7ft  -  4 4 mph 1026.9mb - 67f
7:00pm 0.7ft  -  2 4 mph 1026.8mb 68f 67f
6:50pm 0.7ft  -  2 2 mph 1026.6mb - 68f
6:40pm  -   -  2 2 mph 1026.4mb - 68f
6:30pm  -   -  2 2 mph 1026.3mb - 68f
6:20pm  -   -  2 2 mph 1026.3mb - 68f
6:10pm 0.7ft  -  2 4 mph 1026.2mb - 69f
6:00pm 0.7ft  -  2 4 mph 1026.3mb 69f 69f
5:50pm 0.7ft  -  2 4 mph 1026.3mb - 70f
5:40pm  -   -  2 4 mph 1026.2mb - 70f
5:30pm  -   -  2 4 mph 1026.2mb - 70f
5:20pm  -   -  2 4 mph 1026.2mb - 71f
5:10pm 1ft  -  2 4 mph 1026.1mb - 71f
5:00pm 1ft 2s 2 4 mph 1026.1mb 69f 71f
4:50pm  -   -  2 2 mph 1026.1mb - 71f
4:40pm  -   -  2 4 mph 1026.1mb - 71f
4:30pm  -   -  2 2 mph 1026.1mb - 71f
4:20pm  -   -  4 4 mph 1026.1mb - 71f
4:10pm 0.7ft  -  4 4 mph 1026.1mb - 71f
4:00pm 1ft 2s 2 4 mph 1026mb 69f 71f
3:50pm 0.7ft  -  2 4 mph 1026mb - 71f
3:40pm  -   -  2 4 mph 1025.9mb - 70f
3:30pm  -   -  2 4 mph 1025.9mb - 70f
3:20pm  -   -  2 4 mph 1026mb - 70f
3:10pm 0.7ft  -  4 4 mph 1025.9mb - 70f
3:00pm 0.7ft  -  2 4 mph 1025.9mb 69f 70f
2:50pm 0.7ft  -  2 2 mph 1025.9mb - 70f
2:40pm  -   -  2 2 mph 1026mb - 70f
2:30pm  -   -   -  2 mph 1026.1mb - 71f
2:20pm  -   -   -  2 mph 1026.2mb - 70f
2:10pm 1ft  -   -  2 mph 1026.2mb - 69f
2:00pm 1ft 2s  -  2 mph 1026.3mb 69f 69f
1:50pm 1ft  -   -  2 mph 1026.5mb - 70f
1:40pm  -   -   -  2 mph 1026.6mb - 70f
1:30pm  -   -   -  2 mph 1026.6mb - 69f
1:20pm  -   -   -  2 mph 1026.8mb - 69f
1:10pm 1ft  -   -  0 mph 1026.9mb - 70f
1:00pm 1ft 2s  -  0 mph 1027mb 68f 69f
12:50pm  -   -   -  0 mph 1027.1mb - 69f
12:40pm  -   -   -  2 mph 1027.2mb - 67f
12:30pm  -   -  2 2 mph 1027.3mb - 67f
12:20pm  -   -  2 2 mph 1027.4mb - 66f
12:10pm 0.7ft  -  2 2 mph 1027.5mb - 66f
12:00pm 0.7ft  -  2 2 mph 1027.5mb 68f 66f
11:50am 0.7ft  -  2 2 mph 1027.6mb - 65f
11:40am  -   -  2 2 mph 1027.6mb - 65f
11:30am  -   -  2 4 mph 1027.7mb - 65f
11:20am  -   -  2 4 mph 1027.7mb - 64f
11:10am 0.7ft  -  2 4 mph 1027.7mb - 65f
11:00am 0.7ft  -  2 4 mph 1027.6mb 67f 65f
10:50am 0.7ft  -  2 4 mph 1027.6mb - 65f
10:40am  -   -   -  2 mph 1027.6mb - 64f
10:30am  -   -  2 2 mph 1027.6mb - 64f
10:20am  -   -  2 4 mph 1027.7mb - 64f
10:10am 0.3ft  -  4 4 mph 1027.6mb - 63f
10:00am 0.3ft  -  4 7 mph 1027.7mb 67f 63f
9:50am 0.3ft  -  4 4 mph 1028.1mb - 62f
9:40am  -   -  4 4 mph 1028mb - 62f
9:30am  -   -  4 4 mph 1028mb - 62f
9:20am  -   -  2 4 mph 1028mb - 61f
9:10am 0.3ft  -  4 7 mph 1027.8mb - 60f
9:00am 0.3ft  -  7 7 mph 1027.7mb 67f 60f
8:50am 0.3ft  -  7 7 mph 1027.6mb - 60f
8:40am  -   -  4 7 mph 1027.4mb - 59f
8:30am  -   -  4 4 mph 1027.2mb - 59f
8:20am  -   -  4 4 mph 1027.1mb - 58f
8:10am 0.3ft  -  4 4 mph 1026.9mb - 58f
8:00am 0.3ft  -  7 7 mph 1026.7mb 67f 57f
7:50am 0.3ft  -  7 7 mph 1026.6mb - 57f
7:40am  -   -  7 7 mph 1026.4mb - 56f
7:30am  -   -  7 7 mph 1026.3mb - 56f
7:20am  -   -  7 7 mph 1026.1mb - 57f
7:10am 0.3ft  -  7 7 mph 1026mb - 58f
7:00am 0.3ft  -  7 9 mph 1025.8mb 67f 58f
6:50am 0.3ft  -  4 7 mph 1025.7mb - 58f
6:40am  -   -  7 7 mph 1025.6mb - 58f
6:30am  -   -  7 7 mph 1025.6mb - 58f
6:20am  -   -  7 7 mph 1025.5mb - 58f
6:10am  -   -  7 7 mph 1025.4mb - 58f
6:00am  -   -  7 7 mph 1025.4mb 68f 58f
5:50am  -   -  7 9 mph 1025.3mb - 58f
5:40am  -   -  7 7 mph 1025.2mb - 58f
5:30am  -   -  4 7 mph 1025mb - 58f
5:20am  -   -  4 7 mph 1025mb - 58f
5:10am  -   -  7 7 mph 1024.9mb - 58f
5:00am  -   -  4 7 mph 1024.8mb 68f 58f
4:50am  -   -  7 7 mph 1024.8mb - 58f
4:40am  -   -  7 9 mph 1024.8mb - 58f
4:30am  -   -  7 9 mph 1024.7mb - 58f
4:20am  -   -  7 7 mph 1024.7mb - 58f
4:10am  -   -  7 9 mph 1024.6mb - 57f
4:00am  -   -  7 9 mph 1024.6mb 68f 57f
3:50am  -   -  7 7 mph 1024.6mb - 57f
3:40am  -   -  7 7 mph 1024.7mb - 57f
3:30am  -   -  7 7 mph 1024.7mb - 58f
3:20am  -   -  7 7 mph 1024.7mb - 58f
3:10am 0.3ft  -  7 9 mph 1024.8mb - 58f
3:00am 0.3ft  -  7 9 mph 1024.9mb 68f 58f
2:50am 0.3ft  -  7 9 mph 1024.8mb - 58f
2:40am  -   -  7 7 mph 1024.8mb - 59f
2:30am  -   -  7 7 mph 1024.8mb - 58f
2:20am  -   -  7 7 mph 1024.8mb - 59f
2:10am  -   -  4 7 mph 1024.7mb - 60f
2:00am  -   -  4 7 mph 1024.7mb 68f 60f
1:50am  -   -  4 7 mph 1024.6mb - 60f
1:40am  -   -  4 4 mph 1024.5mb - 60f
1:30am  -   -  4 4 mph 1024.4mb - 60f
1:20am  -   -  4 4 mph 1024.4mb - 61f
1:10am  -   -  2 4 mph 1024.4mb - 61f
1:00am  -   -  2 2 mph 1024.2mb 68f 61f
12:50am  -   -  2 2 mph 1024.2mb - 61f
12:40am  -   -  2 2 mph 1024.2mb - 61f
12:30am  -   -  2 4 mph 1024mb - 61f
12:20am  -   -  4 4 mph 1024mb - 61f
12:10am  -   -  4 7 mph 1024.1mb - 61f
12:00am  -   -  4 7 mph 1024.1mb 68f 61f
Fri 10/20 11:50pm  -   -  7 7 mph 1024mb - 61f
11:40pm  -   -  4 7 mph 1023.9mb - 61f
11:30pm  -   -  7 7 mph 1023.7mb - 62f
11:20pm  -   -  7 7 mph 1023.5mb - 62f
11:10pm  -   -  7 7 mph 1023.8mb - 62f
11:00pm  -   -  7 9 mph 1023.8mb 68f 62f
10:50pm  -   -  7 7 mph 1023.7mb - 62f
10:40pm  -   -  9 9 mph 1023.8mb - 62f
10:30pm  -   -  7 9 mph 1023.8mb - 63f
10:20pm  -   -  7 7 mph 1023.7mb - 63f
10:10pm 0.3ft  -  4 9 mph 1023.6mb - 63f
10:00pm 0.3ft  -  4 7 mph 1023.4mb 68f 63f
9:50pm 0.3ft  -  4 7 mph 1023.3mb - 64f
9:40pm  -   -  4 7 mph 1023.2mb - 64f
9:30pm  -   -  7 7 mph 1023.1mb - 64f
9:20pm  -   -  4 7 mph 1022.7mb - 64f
9:10pm 0.3ft  -  4 4 mph 1022.9mb - 64f
9:00pm 0.3ft  -  4 4 mph 1022.8mb 68f 64f
8:50pm 0.3ft  -  4 4 mph 1022.8mb - 65f
8:40pm  -   -  2 4 mph 1022.8mb - 65f
8:30pm  -   -  2 4 mph 1022.7mb - 65f
8:20pm  -   -  4 4 mph 1022.3mb - 65f
8:10pm 0.3ft  -  4 4 mph 1022.5mb - 66f
8:00pm 0.3ft  -  4 4 mph 1022.4mb 67f 66f
7:50pm 0.3ft  -  4 4 mph 1022.3mb - 66f
7:40pm  -   -  2 2 mph 1022.1mb - 66f
7:30pm  -   -  2 2 mph 1022mb - 66f
7:20pm  -   -  2 4 mph 1021.9mb - 67f
7:10pm 0.7ft  -  2 4 mph 1021.8mb - 67f
7:00pm 0.7ft  -  2 4 mph 1021.8mb 67f 68f
6:40pm  -   -  4 4 mph 1021.5mb - 68f
6:30pm  -   -  2 4 mph 1021.4mb - 69f
6:20pm  -   -   -  2 mph 1021.3mb - 69f
6:10pm 0.7ft  -  2 2 mph 1021.2mb - 69f
6:00pm 0.7ft  -  2 2 mph 1021.3mb 68f 70f
5:50pm 0.7ft  -  2 2 mph 1021.2mb - 71f
5:40pm  -   -  2 2 mph 1021.1mb - 71f
5:30pm  -   -  2 4 mph 1021.1mb - 71f
5:20pm  -   -  4 4 mph 1021mb - 70f
5:10pm 0.7ft  -  2 4 mph 1021mb - 71f
5:00pm 0.7ft  -  4 4 mph 1021mb 69f 71f
4:50pm  -   -  2 4 mph 1021mb - 71f
4:40pm  -   -  4 9 mph 1021.1mb - 71f
4:30pm  -   -  4 4 mph 1021.1mb - 71f
4:20pm  -   -  4 9 mph 1021.1mb - 71f
4:10pm 0.7ft  -  2 7 mph 1021.1mb - 71f
4:00pm 0.7ft  -  2 4 mph 1021.2mb 68f 71f
3:50pm 0.7ft  -  4 7 mph 1021.2mb - 71f
3:40pm  -   -  4 7 mph 1021.2mb - 71f
3:30pm  -   -  4 9 mph 1021.2mb - 70f
3:20pm  -   -  4 7 mph 1021.2mb - 70f
3:10pm 0.7ft  -  4 11 mph 1021.3mb - 70f
3:00pm 0.7ft  -  9 9 mph 1021.3mb 68f 69f
2:50pm 0.7ft  -  9 11 mph 1021.4mb - 69f
2:40pm  -   -  7 11 mph 1021.5mb - 69f
2:30pm  -   -  7 11 mph 1021.6mb - 69f
2:20pm  -   -  7 13 mph 1021.7mb - 69f
2:10pm 0.7ft  -  7 13 mph 1021.9mb - 69f
2:00pm 0.7ft  -  4 9 mph 1022mb 68f 69f
1:50pm 0.7ft  -  7 13 mph 1022mb - 69f
1:40pm  -   -  4 13 mph 1022.1mb - 69f
1:30pm  -   -  4 9 mph 1022.1mb - 69f
1:20pm  -   -  4 9 mph 1022.4mb - 70f
1:10pm 0.7ft  -  4 7 mph 1022.6mb - 70f
1:00pm 0.7ft  -  2 7 mph 1022.7mb 68f 70f
12:50pm  -   -  2 9 mph 1022.8mb - 70f
12:10pm  -   -  7 11 mph 1023.1mb - 69f
12:00pm 0.7ft  -  9 13 mph 1023.2mb 67f 69f
11:50am  -   -  11 16 mph 1023.2mb - 69f
10:50am  -   -  13 16 mph 1023.1mb - 66f
10:20am  -   -  13 16 mph 1023mb - 66f
10:10am 0.3ft  -  13 16 mph 1023.1mb - 65f
10:00am 0.3ft  -  11 16 mph 1023.1mb 66f 65f
9:50am 0.3ft  -  11 13 mph 1023.1mb - 65f
9:40am  -   -  11 13 mph 1023.3mb - 65f
9:30am  -   -  11 13 mph 1023.3mb - 64f
9:20am  -   -  11 11 mph 1023.4mb - 64f
9:10am  -   -  11 13 mph 1023.4mb - 64f
9:00am  -   -  11 13 mph 1023.3mb 66f 64f
8:50am  -   -  11 13 mph 1023.3mb - 63f
8:40am  -   -  13 13 mph 1023.1mb - 63f
8:30am  -   -  11 13 mph 1023mb - 62f
8:20am  -   -  11 13 mph 1022.9mb - 61f
8:10am 0.3ft  -  11 13 mph 1022.7mb - 60f
8:00am 0.3ft  -  11 11 mph 1022.5mb 67f 60f
7:50am 0.3ft  -  11 13 mph 1022.4mb - 59f
7:40am  -   -  11 11 mph 1022.3mb - 59f
7:30am  -   -  9 11 mph 1022.3mb - 60f
7:20am  -   -  9 11 mph 1022.2mb - 59f
7:10am  -   -  9 11 mph 1022.1mb - 59f
7:00am  -   -  9 11 mph 1022.1mb 67f 60f
6:50am  -   -  11 11 mph 1022.1mb - 60f
6:40am  -   -  11 11 mph 1021.9mb - 59f
6:30am  -   -  11 11 mph 1021.8mb - 59f
6:20am  -   -  11 11 mph 1021.8mb - 59f
6:10am  -   -  11 11 mph 1021.7mb - 59f
6:00am  -   -  11 11 mph 1021.5mb 67f 59f
5:50am  -   -  11 13 mph 1021.4mb - 59f
5:40am  -   -  11 13 mph 1021.3mb - 59f
5:30am  -   -  11 13 mph 1021.2mb - 59f
5:20am  -   -  11 13 mph 1021mb - 59f
5:10am 0.3ft  -  11 13 mph 1020.9mb - 59f
5:00am 0.3ft  -  11 13 mph 1020.9mb 67f 59f
4:50am  -   -  11 13 mph 1020.9mb - 59f
4:40am  -   -  11 11 mph 1020.8mb - 59f
4:30am  -   -  11 11 mph 1020.9mb - 59f
4:20am  -   -  9 11 mph 1020.9mb - 59f
4:10am  -   -  9 11 mph 1020.9mb - 58f
4:00am  -   -  11 13 mph 1020.9mb 67f 58f
3:50am  -   -  11 13 mph 1020.9mb - 58f
3:40am  -   -  11 11 mph 1020.8mb - 58f
3:30am  -   -  11 11 mph 1020.8mb - 58f
3:20am  -   -  11 13 mph 1020.9mb - 58f
3:10am 0.3ft  -  11 13 mph 1020.9mb - 58f
3:00am 0.3ft  -  11 13 mph 1020.8mb 67f 58f
2:50am 0.3ft  -  11 13 mph 1020.8mb - 58f
2:40am  -   -  11 11 mph 1020.7mb - 58f
2:30am  -   -  11 13 mph 1020.8mb - 58f
2:20am  -   -  11 13 mph 1020.8mb - 58f
2:10am 0.3ft  -  11 11 mph 1020.8mb - 58f
2:00am 0.7ft  -  11 11 mph 1020.8mb 67f 58f
1:50am 0.3ft  -  11 11 mph 1020.9mb - 58f
1:40am  -   -  9 11 mph 1020.9mb - 58f
1:30am  -   -  9 9 mph 1021mb - 58f
1:20am  -   -  9 11 mph 1021.1mb - 59f
1:10am 0.3ft  -  9 11 mph 1021.1mb - 59f
1:00am 0.3ft  -  9 9 mph 1021.1mb 67f 59f
12:50am  -   -  9 11 mph 1021.1mb - 59f
12:40am  -   -  9 9 mph 1021.1mb - 59f
12:30am  -   -  7 9 mph 1021.2mb - 60f
12:20am  -   -  7 9 mph 1021.2mb - 60f
12:10am 0.3ft  -  4 7 mph 1021.2mb - 60f
12:00am 0.3ft  -  4 7 mph 1021.1mb 67f 61f
Thu 10/19 11:50pm 0.3ft  -  7 7 mph 1020.9mb - 61f
11:40pm  -   -  7 7 mph 1020.9mb - 61f
11:30pm  -   -  7 7 mph 1021mb - 62f
11:20pm  -   -  7 7 mph 1020.7mb - 62f
11:10pm 0.3ft  -  7 9 mph 1020.5mb - 62f
11:00pm 0.3ft  -  7 9 mph 1020.4mb 67f 61f
10:50pm  -   -  9 11 mph 1020.3mb - 62f
10:40pm  -   -  9 11 mph 1020.2mb - 62f
10:30pm  -   -  9 11 mph 1020.2mb - 62f
10:20pm  -   -  9 11 mph 1020.2mb - 63f
10:10pm 0.3ft  -  9 11 mph 1020.2mb - 64f
10:00pm 0.3ft  -  9 11 mph 1020.1mb 67f 64f
9:50pm 0.3ft  -  9 11 mph 1020.1mb - 64f
9:40pm  -   -  7 9 mph 1020.1mb - 63f
9:30pm  -   -  7 7 mph 1020.1mb - 63f
9:20pm  -   -  4 7 mph 1020.2mb - 64f
9:10pm 0.7ft  -  4 7 mph 1020.3mb - 64f
9:00pm 0.7ft  -  4 7 mph 1020.3mb 68f 64f
8:50pm 0.7ft  -  4 7 mph 1020.2mb - 64f
8:40pm  -   -  4 7 mph 1020.1mb - 64f
8:30pm  -   -  7 7 mph 1020.2mb - 64f
8:20pm  -   -  7 7 mph 1020.1mb - 64f
8:10pm 0.7ft  -  7 7 mph 1020.1mb - 65f
8:00pm 0.7ft  -  7 9 mph 1020mb 68f 66f
7:50pm 0.7ft  -  9 9 mph 1020.1mb - 66f
7:40pm  -   -  9 9 mph 1020.1mb - 66f
7:30pm  -   -  9 11 mph 1019.9mb - 67f
7:20pm  -   -  9 11 mph 1019.8mb - 67f
7:10pm 1ft  -  9 11 mph 1019.8mb - 67f
7:00pm 1ft 2s 9 11 mph 1019.8mb 68f 67f
6:50pm 1ft  -  9 11 mph 1019.8mb - 67f
6:40pm  -   -  9 11 mph 1019.9mb - 67f
6:30pm  -   -  11 13 mph 1019.9mb - 68f
6:20pm  -   -  11 13 mph 1019.9mb - 68f
6:10pm 1.3ft  -  11 13 mph 1019.8mb - 68f
6:00pm 1.3ft 2s 11 13 mph 1019.9mb 68f 68f
5:50pm 1.3ft  -  11 13 mph 1019.9mb - 69f
5:40pm  -   -  13 16 mph 1019.9mb - 68f
5:30pm  -   -  13 16 mph 1019.8mb - 68f
5:20pm  -   -  13 16 mph 1019.9mb - 68f
5:10pm 1.3ft  -  13 18 mph 1019.9mb - 68f
5:00pm 1.3ft 2s 16 18 mph 1019.9mb 68f 68f
4:50pm  -   -  16 18 mph 1020.1mb - 67f
4:40pm  -   -  13 16 mph 1020.3mb - 67f
4:30pm  -   -  16 18 mph 1020.4mb - 67f
4:20pm  -   -  16 18 mph 1020.5mb - 67f
4:10pm 1ft  -  16 18 mph 1020.6mb - 67f
4:00pm 1ft 2s 16 18 mph 1020.7mb 68f 67f
3:50pm 1ft  -  13 16 mph 1020.8mb - 67f
3:40pm  -   -  13 16 mph 1020.9mb - 66f
3:30pm  -   -  13 16 mph 1021mb - 66f
3:20pm  -   -  13 16 mph 1021.1mb - 66f
3:10pm 1ft  -  13 16 mph 1021.2mb - 66f
3:00pm 1ft 2s 13 16 mph 1021.2mb 67f 65f
2:50pm  -   -  13 16 mph 1021.4mb - 65f
2:40pm  -   -  11 13 mph 1021.5mb - 65f
2:30pm  -   -  11 13 mph 1021.8mb - 65f
2:20pm  -   -  11 13 mph 1022mb - 65f
2:10pm 1ft  -  11 13 mph 1022mb - 65f
2:00pm 1ft 2s 11 13 mph 1022.2mb 67f 65f
1:50pm 1ft  -  11 13 mph 1022.3mb - 65f
1:40pm  -   -  11 13 mph 1022.4mb - 65f
1:30pm  -   -  11 13 mph 1022.6mb - 64f
1:20pm  -   -  11 13 mph 1022.9mb - 64f
1:10pm 0.7ft  -  11 13 mph 1023mb - 64f
1:00pm 0.7ft  -  11 13 mph 1023.3mb 67f 64f
12:50pm 0.7ft  -  9 11 mph 1023.4mb - 65f
12:40pm  -   -  9 11 mph 1023.5mb - 65f
12:30pm  -   -  9 13 mph 1023.6mb - 65f
12:20pm  -   -  11 13 mph 1023.9mb - 65f
12:10pm 0.7ft  -  9 13 mph 1024mb - 64f
12:00pm 0.7ft  -  11 13 mph 1024.1mb 66f 64f
11:50am  -   -  9 11 mph 1024.2mb - 64f
11:40am  -   -  9 13 mph 1024.1mb - 64f
11:30am  -   -  11 13 mph 1024.3mb - 63f
11:20am  -   -  11 13 mph 1024.4mb - 63f
11:10am 0.7ft  -  9 16 mph 1024.6mb - 63f
11:00am 0.7ft  -  9 13 mph 1024.7mb 66f 62f
10:50am 0.7ft  -  9 11 mph 1025.1mb - 62f
10:40am  -   -  9 13 mph 1025.3mb - 61f
10:30am  -   -  9 13 mph 1025.4mb - 61f
10:20am  -   -  11 13 mph 1025.5mb - 60f